| time (UTC) | temp C | wind direction | speed KPH | gust KPH | rain 1hr cm | rain 24hr cm | rain mn cm | humidity % | barometer mb |
| 20260903165150 | 25 | 270 | 9.7 | 27.4 | 0.00 | 0.00 | 0.00 | 41 | 1019.9 |
| 20260903163930 | 25 | 270 | 9.7 | 27.4 | 0.00 | 0.00 | 0.00 | 41 | 1019.9 |
| 20260903162622 | 25 | 270 | 14.5 | 27.4 | 0.00 | 0.00 | 0.00 | 39 | 1020.0 |
| 20260903161352 | 25 | 270 | 14.5 | 27.4 | 0.00 | 0.00 | 0.00 | 39 | 1020.0 |
| 20260903160127 | 26 | 225 | 14.5 | 27.4 | 0.00 | 0.00 | 0.00 | 38 | 1020.0 |
| 20260903154812 | 26 | 225 | 14.5 | 27.4 | 0.00 | 0.00 | 0.00 | 38 | 1020.0 |
| 20260903153405 | 26 | 270 | 14.5 | 27.4 | 0.00 | 0.00 | 0.00 | 34 | 1020.3 |
| 20260903151912 | 26 | 270 | 14.5 | 27.4 | 0.00 | 0.00 | 0.00 | 34 | 1020.3 |
| 20260903150457 | 26 | 270 | 16.1 | 29.0 | 0.00 | 0.00 | 0.00 | 31 | 1020.2 |
| 20260903145217 | 26 | 270 | 16.1 | 29.0 | 0.00 | 0.00 | 0.00 | 31 | 1020.2 |
| 20260903143807 | 26 | 270 | 16.1 | 29.0 | 0.00 | 0.00 | 0.00 | 31 | 1020.2 |
| 20260903142352 | 26 | 270 | 17.7 | 25.7 | 0.00 | 0.00 | 0.00 | 29 | 1020.3 |
| 20260903141017 | 26 | 270 | 17.7 | 25.7 | 0.00 | 0.00 | 0.00 | 29 | 1020.3 |
| 20260903135757 | 25 | 270 | 14.5 | 30.6 | 0.00 | 0.00 | 0.00 | 33 | 1020.6 |
| 20260903134547 | 25 | 270 | 14.5 | 30.6 | 0.00 | 0.00 | 0.00 | 33 | 1020.6 |
| 20260903133232 | 25 | 270 | 19.3 | 30.6 | 0.00 | 0.00 | 0.00 | 35 | 1020.9 |
| 20260903131900 | 25 | 270 | 19.3 | 30.6 | 0.00 | 0.00 | 0.00 | 35 | 1020.9 |
| 20260903130547 | 25 | 270 | 19.3 | 30.6 | 0.00 | 0.00 | 0.00 | 39 | 1021.2 |
| 20260903125322 | 25 | 270 | 19.3 | 30.6 | 0.00 | 0.00 | 0.00 | 39 | 1021.2 |
| 20260903123907 | 25 | 270 | 19.3 | 30.6 | 0.00 | 0.00 | 0.00 | 39 | 1021.2 |
| 20260903122550 | 24 | 270 | 17.7 | 30.6 | 0.00 | 0.00 | 0.00 | 45 | 1021.5 |
| 20260903121052 | 24 | 270 | 17.7 | 30.6 | 0.00 | 0.00 | 0.00 | 45 | 1021.5 |
| 20260903115742 | 24 | 270 | 17.7 | 27.4 | 0.00 | 0.00 | 0.00 | 45 | 1021.6 |
| 20260903114302 | 24 | 270 | 17.7 | 27.4 | 0.00 | 0.00 | 0.00 | 45 | 1021.6 |
| 20260903112907 | 23 | 315 | 14.5 | 22.5 | 0.00 | 0.00 | 0.00 | 49 | 1021.9 |
| 20260903111422 | 23 | 315 | 14.5 | 22.5 | 0.00 | 0.00 | 0.00 | 49 | 1021.9 |
| 20260903110052 | 23 | 270 | 11.3 | 22.5 | 0.00 | 0.00 | 0.00 | 52 | 1022.2 |
| 20260903104732 | 23 | 270 | 11.3 | 22.5 | 0.00 | 0.00 | 0.00 | 52 | 1022.2 |
| 20260903103347 | 21 | 270 | 12.9 | 22.5 | 0.00 | 0.00 | 0.00 | 57 | 1022.6 |
| 20260903102007 | 21 | 270 | 12.9 | 22.5 | 0.00 | 0.00 | 0.00 | 57 | 1022.6 |
| 20260903100617 | 21 | 270 | 12.9 | 22.5 | 0.00 | 0.00 | 0.00 | 57 | 1022.6 |
| 20260903095217 | 21 | 270 | 8.0 | 16.1 | 0.00 | 0.00 | 0.00 | 60 | 1022.6 |
| 20260903093912 | 21 | 270 | 8.0 | 16.1 | 0.00 | 0.00 | 0.00 | 60 | 1022.6 |
| 20260903092547 | 20 | 270 | 4.8 | 9.7 | 0.00 | 0.00 | 0.00 | 64 | 1022.9 |
| 20260903091142 | 20 | 270 | 4.8 | 9.7 | 0.00 | 0.00 | 0.00 | 64 | 1022.9 |
| 20260903085902 | 19 | 270 | 3.2 | 9.7 | 0.00 | 0.00 | 0.00 | 65 | 1022.6 |
| 20260903084517 | 19 | 270 | 3.2 | 9.7 | 0.00 | 0.00 | 0.00 | 65 | 1022.6 |
| 20260903083144 | 18 | 270 | 4.8 | 9.7 | 0.00 | 0.00 | 0.00 | 69 | 1023.1 |
| 20260903081812 | 18 | 270 | 4.8 | 9.7 | 0.00 | 0.00 | 0.00 | 69 | 1023.1 |
| 20260903080449 | 17 | 270 | 6.4 | 11.3 | 0.00 | 0.00 | 0.00 | 71 | 1023.6 |
| 20260903075022 | 17 | 270 | 6.4 | 11.3 | 0.00 | 0.00 | 0.00 | 71 | 1023.6 |
| 20260903073627 | 17 | 270 | 6.4 | 11.3 | 0.00 | 0.00 | 0.00 | 71 | 1023.6 |
| 20260903072322 | 16 | 315 | 4.8 | 8.0 | 0.00 | 0.00 | 0.00 | 76 | 1023.7 |
| 20260903071018 | 16 | 315 | 4.8 | 8.0 | 0.00 | 0.00 | 0.00 | 76 | 1023.7 |
| 20260903065722 | 13 | 315 | 3.2 | 6.4 | 0.00 | 0.00 | 0.00 | 89 | 1023.8 |
| 20260903064437 | 13 | 315 | 3.2 | 6.4 | 0.00 | 0.00 | 0.00 | 89 | 1023.8 |
| 20260903063055 | 12 | 45 | 3.2 | 6.4 | 0.00 | 0.00 | 0.00 | 93 | 1023.6 |
| 20260903061707 | 12 | 45 | 3.2 | 6.4 | 0.00 | 0.00 | 0.00 | 93 | 1023.6 |
| 20260903060402 | 12 | 0 | 4.8 | 6.4 | 0.00 | 0.00 | 0.00 | 92 | 1023.7 |
| 20260903055037 | 12 | 0 | 4.8 | 6.4 | 0.00 | 0.00 | 0.00 | 92 | 1023.7 |
| 20260903053552 | 12 | 0 | 3.2 | 3.2 | 0.00 | 0.00 | 0.00 | 90 | 1023.3 |
| 20260903052135 | 12 | 0 | 3.2 | 3.2 | 0.00 | 0.00 | 0.00 | 90 | 1023.3 |
| 20260903050817 | 12 | 0 | 3.2 | 3.2 | 0.00 | 0.00 | 0.00 | 90 | 1023.3 |
| 20260903045430 | 12 | 0 | 0.0 | 9.7 | 0.00 | 0.00 | 0.00 | 90 | 1023.3 |
| 20260903044047 | 12 | 0 | 0.0 | 9.7 | 0.00 | 0.00 | 0.00 | 90 | 1023.3 |
| 20260903042657 | 13 | 0 | 3.2 | 9.7 | 0.00 | 0.00 | 0.00 | 87 | 1023.2 |
| 20260903041437 | 13 | 0 | 3.2 | 9.7 | 0.00 | 0.00 | 0.00 | 87 | 1023.2 |
| 20260903034734 | 13 | 0 | 3.2 | 9.7 | 0.00 | 0.00 | 0.00 | 86 | 1023.2 |
| 20260903033342 | 13 | 0 | 1.6 | 9.7 | 0.00 | 0.00 | 0.00 | 84 | 1022.9 |
| 20260903031957 | 13 | 0 | 1.6 | 9.7 | 0.00 | 0.00 | 0.00 | 84 | 1022.9 |
| 20260903030657 | 13 | 0 | 1.6 | 9.7 | 0.00 | 0.00 | 0.00 | 84 | 1022.9 |
| 20260903025322 | 14 | 315 | 6.4 | 9.7 | 0.00 | 0.00 | 0.00 | 81 | 1022.9 |
| 20260903023957 | 14 | 315 | 6.4 | 9.7 | 0.00 | 0.00 | 0.00 | 81 | 1022.9 |
| 20260903022727 | 14 | 315 | 3.2 | 9.7 | 0.00 | 0.00 | 0.00 | 82 | 1023.0 |
| 20260903021442 | 14 | 315 | 3.2 | 9.7 | 0.00 | 0.00 | 0.00 | 82 | 1023.0 |
| 20260903020030 | 15 | 315 | 6.4 | 11.3 | 0.00 | 0.00 | 0.00 | 77 | 1022.6 |
| 20260903014652 | 15 | 315 | 6.4 | 11.3 | 0.00 | 0.00 | 0.00 | 77 | 1022.6 |
| 20260903013303 | 15 | 315 | 6.4 | 8.0 | 0.00 | 0.00 | 0.00 | 81 | 1022.6 |
| 20260903011845 | 15 | 315 | 6.4 | 8.0 | 0.00 | 0.00 | 0.00 | 81 | 1022.6 |
| 20260903010517 | 15 | 0 | 1.6 | 9.7 | 0.00 | 0.00 | 0.00 | 79 | 1022.5 |
| 20260903005122 | 15 | 0 | 1.6 | 9.7 | 0.00 | 0.00 | 0.00 | 79 | 1022.5 |
| 20260903003907 | 15 | 0 | 1.6 | 9.7 | 0.00 | 0.00 | 0.00 | 79 | 1022.5 |
| 20260903002647 | 16 | 90 | 3.2 | 9.7 | 0.00 | 0.00 | 0.00 | 74 | 1022.2 |
| 20260903001257 | 16 | 90 | 3.2 | 9.7 | 0.00 | 0.00 | 0.00 | 74 | 1022.2 |
| 20260902235909 | 18 | 270 | 9.7 | 14.5 | 0.00 | 0.00 | 0.00 | 61 | 1021.8 |
| 20260902234547 | 18 | 270 | 9.7 | 14.5 | 0.00 | 0.00 | 0.00 | 61 | 1021.8 |
| 20260902233244 | 19 | 315 | 9.7 | 12.9 | 0.00 | 0.00 | 0.00 | 66 | 1021.7 |
| 20260902231837 | 19 | 315 | 9.7 | 12.9 | 0.00 | 0.00 | 0.00 | 66 | 1021.7 |
| 20260902230532 | 20 | 270 | 9.7 | 14.5 | 0.00 | 0.00 | 0.00 | 63 | 1021.5 |
| 20260902225132 | 20 | 270 | 9.7 | 14.5 | 0.00 | 0.00 | 0.00 | 63 | 1021.5 |
| 20260902223802 | 20 | 270 | 9.7 | 14.5 | 0.00 | 0.00 | 0.00 | 63 | 1021.5 |
| 20260902222544 | 18 | 315 | 6.4 | 14.5 | 0.00 | 0.00 | 0.00 | 68 | 1021.5 |
| 20260902221054 | 18 | 315 | 6.4 | 14.5 | 0.00 | 0.00 | 0.00 | 68 | 1021.5 |
| 20260902215817 | 18 | 315 | 8.0 | 9.7 | 0.00 | 0.00 | 0.00 | 69 | 1021.3 |
| 20260902214412 | 18 | 315 | 8.0 | 9.7 | 0.00 | 0.00 | 0.00 | 69 | 1021.3 |
| 20260902213042 | 18 | 90 | 3.2 | 3.2 | 0.00 | 0.00 | 0.00 | 70 | 1021.1 |
| 20260902211647 | 18 | 90 | 3.2 | 3.2 | 0.00 | 0.00 | 0.00 | 70 | 1021.1 |
| 20260902210327 | 19 | 0 | 1.6 | 9.7 | 0.00 | 0.00 | 0.00 | 65 | 1020.9 |
| 20260902204932 | 19 | 0 | 1.6 | 9.7 | 0.00 | 0.00 | 0.00 | 65 | 1020.9 |
| 20260902203647 | 19 | 0 | 1.6 | 9.7 | 0.00 | 0.00 | 0.00 | 65 | 1020.9 |
| 20260902202242 | 20 | 315 | 6.4 | 9.7 | 0.00 | 0.00 | 0.00 | 61 | 1020.6 |
| 20260902200821 | 20 | 315 | 6.4 | 9.7 | 0.00 | 0.00 | 0.00 | 61 | 1020.6 |
| 20260902195552 | 21 | 270 | 4.8 | 12.9 | 0.00 | 0.00 | 0.00 | 53 | 1020.0 |
| 20260902194122 | 21 | 270 | 4.8 | 12.9 | 0.00 | 0.00 | 0.00 | 53 | 1020.0 |
| 20260902192837 | 21 | 315 | 8.0 | 11.3 | 0.00 | 0.00 | 0.00 | 52 | 1019.7 |
| 20260902191442 | 21 | 315 | 8.0 | 11.3 | 0.00 | 0.00 | 0.00 | 52 | 1019.7 |
| 20260902190047 | 22 | 315 | 8.0 | 19.3 | 0.00 | 0.00 | 0.00 | 49 | 1019.5 |
| 20260902184642 | 22 | 315 | 8.0 | 19.3 | 0.00 | 0.00 | 0.00 | 49 | 1019.5 |
| 20260902183338 | 23 | 270 | 9.7 | 19.3 | 0.00 | 0.00 | 0.00 | 40 | 1018.9 |
| 20260902182017 | 23 | 270 | 9.7 | 19.3 | 0.00 | 0.00 | 0.00 | 40 | 1018.9 |
| 20260902180753 | 23 | 270 | 9.7 | 19.3 | 0.00 | 0.00 | 0.00 | 40 | 1018.9 |
| 20260902175503 | 24 | 270 | 11.3 | 25.7 | 0.00 | 0.00 | 0.00 | 39 | 1018.7 |
| 20260902174057 | 24 | 270 | 11.3 | 25.7 | 0.00 | 0.00 | 0.00 | 39 | 1018.7 |
| 20260902172712 | 25 | 270 | 14.5 | 25.7 | 0.00 | 0.00 | 0.00 | 34 | 1018.6 |
| 20260902171247 | 25 | 270 | 14.5 | 25.7 | 0.00 | 0.00 | 0.00 | 34 | 1018.6 |